Regional Weather Roundup
Issued by NWS Goodland, KS

Home | Current Version | Previous Version | Graphics & Text | Print | Product List | Glossary On
Versions: 1 2 3 4 5 6 7 8 9 10 11 12 13 14 15 16 17 18 19 20 21 22 23 24 25 26 27 28 29 30 31 32 33 34 35 36 37 38 39 40 41 42 43 44 45 46 47 48 49 50
000
ASUS43 KGLD 222059
RWRGLD

GOODLAND FORECAST AREA HOURLY WEATHER ROUNDUP
NATIONAL WEATHER SERVICE GOODLAND KS
300 PM MDT FRI AUG 22 2014

...OFFICIAL OBSERVATIONS...

CITY           SKY/WX    TMP DP  RH WIND       PRES   REMARKS
GOODLAND KS    PTSUNNY   85  61  44 E16       30.00F
HILL CITY KS   MOSUNNY   94  66  39 E9        29.91F
IMPERIAL NEB   PTSUNNY   86  56  35 N15       30.02F
MCCOOK NEB     MOSUNNY   89  64  43 NE13      29.96F
AKRON CO       PTSUNNY   74  57  55 NE10      30.09F
BURLINGTON CO  PTSUNNY   76  64  66 E15G28    29.99F THUNDER
LIMON CO       TSTM      72  56  57 E23G30    30.08F
$$

...UNOFFICIAL OBSERVATIONS...

CITY           SKY/WX    TMP DP  RH WIND       PRES   REMARKS
COLBY KS       PTSUNNY   84  70  61 E14       29.96F
LENORA KS        N/A     88  32  13 CALM        N/A
NORTON KS      SUNNY     91  55  29 NE8G17    29.93S
SHARON SPRINGS   N/A     84  67  55 E13G22      N/A
WAKEENEY KS      N/A     93  64  37 MISG        N/A
KIT CARSON CO    N/A     69  58  67 MISG        N/A
YUMA CO          N/A     75  58  54 N10         N/A
$$


USA.gov is the U.S. government's official web portal to all federal, state and local government web resources and services.